Time,TemperatureF,DewpointF,PressureIn,WindDirection,WindDirectionDegrees,WindSpeedMPH,WindSpeedGustMPH,Humidity,HourlyPrecipIn,Conditions,Clouds,dailyrainin,SoftwareType,DateUTC
2013-07-25 00:12:00,66.1,57.0,29.37,SE,127,0.0,1.0,72,0.00,,,0.00,weatherlink.com 1.10,2013-07-25 05:12:00,
2013-07-25 00:27:00,65.5,57.0,29.37,SE,127,0.0,1.0,74,0.00,,,0.00,weatherlink.com 1.10,2013-07-25 05:27:00,
2013-07-25 00:42:00,65.5,57.0,29.37,SSE,153,0.0,1.0,74,0.00,,,0.00,weatherlink.com 1.10,2013-07-25 05:42:00,
2013-07-25 00:57:00,64.9,57.0,29.38,SE,137,0.0,1.0,75,0.00,,,0.00,weatherlink.com 1.10,2013-07-25 05:57:00,
2013-07-25 01:12:00,64.1,57.0,29.38,SE,138,0.0,1.0,78,0.00,,,0.00,weatherlink.com 1.10,2013-07-25 06:12:00,
2013-07-25 01:27:00,63.3,57.0,29.38,SE,143,0.0,0.0,79,0.00,,,0.00,weatherlink.com 1.10,2013-07-25 06:27:00,
2013-07-25 01:42:00,63.3,57.0,29.38,SE,143,0.0,0.0,79,0.00,,,0.00,weatherlink.com 1.10,2013-07-25 06:42:00,
2013-07-25 01:57:00,63.5,57.0,29.38,SE,127,0.0,1.0,79,0.00,,,0.00,weatherlink.com 1.10,2013-07-25 06:57:00,
2013-07-25 02:12:00,63.3,57.0,29.38,ESE,121,0.0,1.0,80,0.00,,,0.00,weatherlink.com 1.10,2013-07-25 07:12:00,
2013-07-25 02:27:00,62.8,57.0,29.37,ESE,123,0.0,0.0,82,0.00,,,0.00,weatherlink.com 1.10,2013-07-25 07:27:00,
2013-07-25 02:42:00,62.3,57.0,29.37,SE,130,0.0,1.0,83,0.00,,,0.00,weatherlink.com 1.10,2013-07-25 07:42:00,
2013-07-25 02:57:00,61.8,57.0,29.38,SE,131,0.0,0.0,84,0.00,,,0.00,weatherlink.com 1.10,2013-07-25 07:57:00,
2013-07-25 03:12:00,61.3,57.0,29.38,SW,217,0.0,1.0,85,0.00,,,0.00,weatherlink.com 1.10,2013-07-25 08:12:00,
2013-07-25 03:27:00,60.7,57.0,29.38,SW,217,0.0,0.0,86,0.00,,,0.00,weatherlink.com 1.10,2013-07-25 08:27:00,
2013-07-25 03:42:00,61.2,57.0,29.38,SSW,197,0.0,0.0,86,0.00,,,0.00,weatherlink.com 1.10,2013-07-25 08:42:00,
2013-07-25 03:57:00,60.7,57.0,29.38,SSW,211,0.0,1.0,86,0.00,,,0.00,weatherlink.com 1.10,2013-07-25 08:57:00,
2013-07-25 04:12:00,59.7,57.0,29.39,SSW,211,0.0,0.0,89,0.00,,,0.00,weatherlink.com 1.10,2013-07-25 09:12:00,
2013-07-25 04:27:00,60.2,57.0,29.39,SE,135,0.0,1.0,89,0.00,,,0.00,weatherlink.com 1.10,2013-07-25 09:27:00,
2013-07-25 04:42:00,60.5,57.0,29.39,SE,135,0.0,0.0,89,0.00,,,0.00,weatherlink.com 1.10,2013-07-25 09:42:00,
2013-07-25 04:57:00,60.2,57.0,29.39,SE,127,0.0,0.0,88,0.00,,,0.00,weatherlink.com 1.10,2013-07-25 09:57:00,
2013-07-25 05:12:00,59.2,56.0,29.40,South,186,0.0,0.0,90,0.00,,,0.00,weatherlink.com 1.10,2013-07-25 10:12:00,
2013-07-25 05:27:00,59.8,57.0,29.40,South,186,0.0,0.0,91,0.00,,,0.00,weatherlink.com 1.10,2013-07-25 10:27:00,
2013-07-25 05:42:00,59.9,57.0,29.41,South,186,0.0,1.0,91,0.00,,,0.00,weatherlink.com 1.10,2013-07-25 10:42:00,
2013-07-25 05:57:00,60.0,57.0,29.40,South,186,0.0,1.0,91,0.00,,,0.00,weatherlink.com 1.10,2013-07-25 10:57:00,
2013-07-25 06:12:00,59.4,57.0,29.41,SSW,203,0.0,1.0,91,0.00,,,0.00,weatherlink.com 1.10,2013-07-25 11:12:00,
2013-07-25 06:28:00,60.9,58.0,29.41,SSW,201,0.0,1.0,91,0.00,,,0.00,weatherlink.com 1.10,2013-07-25 11:28:00,
2013-07-25 06:43:00,63.3,59.0,29.42,SSW,208,0.0,1.0,86,0.00,,,0.00,weatherlink.com 1.10,2013-07-25 11:43:00,
2013-07-25 06:58:00,64.1,60.0,29.41,SSW,208,0.0,1.0,85,0.00,,,0.00,weatherlink.com 1.10,2013-07-25 11:58:00,
2013-07-25 07:13:00,65.2,60.0,29.42,SSE,148,0.0,1.0,84,0.00,,,0.00,weatherlink.com 1.10,2013-07-25 12:13:00,
2013-07-25 07:28:00,66.6,61.0,29.41,SW,218,0.0,2.0,82,0.00,,,0.00,weatherlink.com 1.10,2013-07-25 12:28:00,
2013-07-25 07:43:00,68.1,61.0,29.42,NE,41,0.0,2.0,77,0.00,,,0.00,weatherlink.com 1.10,2013-07-25 12:43:00,
2013-07-25 07:58:00,69.4,60.0,29.42,North,9,0.0,4.0,73,0.00,,,0.00,weatherlink.com 1.10,2013-07-25 12:58:00,
2013-07-25 08:13:00,70.4,59.0,29.42,NNE,29,1.0,3.0,68,0.00,,,0.00,weatherlink.com 1.10,2013-07-25 13:13:00,
2013-07-25 08:28:00,71.2,59.0,29.43,NE,34,1.0,4.0,66,0.00,,,0.00,weatherlink.com 1.10,2013-07-25 13:28:00,
2013-07-25 08:43:00,72.7,58.0,29.44,NNE,29,1.0,4.0,60,0.00,,,0.00,weatherlink.com 1.10,2013-07-25 13:43:00,
2013-07-25 08:58:00,73.3,57.0,29.44,NE,49,0.0,3.0,57,0.00,,,0.00,weatherlink.com 1.10,2013-07-25 13:58:00,
2013-07-25 09:13:00,74.0,57.0,29.43,East,84,0.0,3.0,55,0.00,,,0.00,weatherlink.com 1.10,2013-07-25 14:13:00,
2013-07-25 09:28:00,74.9,57.0,29.43,SE,141,3.0,4.0,54,0.00,,,0.00,weatherlink.com 1.10,2013-07-25 14:28:00,
2013-07-25 09:43:00,75.5,57.0,29.43,SE,134,1.0,4.0,52,0.00,,,0.00,weatherlink.com 1.10,2013-07-25 14:43:00,
2013-07-25 09:58:00,75.7,56.0,29.44,WNW,288,2.0,5.0,51,0.00,,,0.00,weatherlink.com 1.10,2013-07-25 14:58:00,
2013-07-25 10:13:00,76.5,56.0,29.45,North,4,3.0,6.0,50,0.00,,,0.00,weatherlink.com 1.10,2013-07-25 15:13:00,
2013-07-25 10:28:00,76.2,56.0,29.45,North,355,2.0,5.0,50,0.00,,,0.00,weatherlink.com 1.10,2013-07-25 15:28:00,
2013-07-25 10:43:00,77.9,56.0,29.45,ENE,75,1.0,6.0,47,0.00,,,0.00,weatherlink.com 1.10,2013-07-25 15:43:00,
2013-07-25 10:58:00,77.2,56.0,29.45,North,6,3.0,5.0,48,0.00,,,0.00,weatherlink.com 1.10,2013-07-25 15:58:00,
2013-07-25 11:13:00,77.4,56.0,29.45,NNE,16,3.0,7.0,48,0.00,,,0.00,weatherlink.com 1.10,2013-07-25 16:13:00,
2013-07-25 11:28:00,77.9,56.0,29.45,ENE,75,2.0,7.0,47,0.00,,,0.00,weatherlink.com 1.10,2013-07-25 16:28:00,
2013-07-25 11:43:00,78.9,56.0,29.46,NE,40,1.0,7.0,46,0.00,,,0.00,weatherlink.com 1.10,2013-07-25 16:43:00,
2013-07-25 11:58:00,79.7,56.0,29.45,NNW,342,5.0,6.0,45,0.00,,,0.00,weatherlink.com 1.10,2013-07-25 16:58:00,
2013-07-25 12:13:00,79.6,56.0,29.45,East,79,1.0,5.0,45,0.00,,,0.00,weatherlink.com 1.10,2013-07-25 17:13:00,
2013-07-25 12:28:00,80.3,56.0,29.45,NE,54,2.0,5.0,44,0.00,,,0.00,weatherlink.com 1.10,2013-07-25 17:28:00,
2013-07-25 12:43:00,80.6,56.0,29.45,NE,53,6.0,10.0,43,0.00,,,0.00,weatherlink.com 1.10,2013-07-25 17:43:00,
2013-07-25 12:58:00,80.5,56.0,29.44,NNW,340,1.0,9.0,43,0.00,,,0.00,weatherlink.com 1.10,2013-07-25 17:58:00,
2013-07-25 13:13:00,82.0,56.0,29.44,NE,43,5.0,6.0,41,0.00,,,0.00,weatherlink.com 1.10,2013-07-25 18:13:00,
2013-07-25 13:28:00,81.2,56.0,29.43,NNW,340,4.0,8.0,42,0.00,,,0.00,weatherlink.com 1.10,2013-07-25 18:28:00,
2013-07-25 13:44:00,82.4,56.0,29.43,NNW,332,2.0,7.0,41,0.00,,,0.00,weatherlink.com 1.10,2013-07-25 18:44:00,
2013-07-25 13:59:00,82.5,56.0,29.43,ENE,77,0.0,7.0,41,0.00,,,0.00,weatherlink.com 1.10,2013-07-25 18:59:00,
2013-07-25 14:14:00,83.3,56.0,29.43,NNE,23,2.0,8.0,39,0.00,,,0.00,weatherlink.com 1.10,2013-07-25 19:14:00,
2013-07-25 14:29:00,82.5,57.0,29.42,NE,42,10.0,13.0,42,0.00,,,0.00,weatherlink.com 1.10,2013-07-25 19:29:00,
2013-07-25 14:44:00,82.1,58.0,29.42,West,262,2.0,8.0,44,0.00,,,0.00,weatherlink.com 1.10,2013-07-25 19:44:00,
2013-07-25 15:00:00,83.4,58.0,29.42,ENE,60,5.0,9.0,42,0.00,,,0.00,weatherlink.com 1.10,2013-07-25 20:00:00,
2013-07-25 15:14:00,82.8,57.0,29.42,North,357,3.0,10.0,42,0.00,,,0.00,weatherlink.com 1.10,2013-07-25 20:14:00,
2013-07-25 15:29:00,82.4,58.0,29.42,NE,46,8.0,12.0,43,0.00,,,0.00,weatherlink.com 1.10,2013-07-25 20:29:00,
2013-07-25 15:44:00,83.0,59.0,29.41,North,1,4.0,7.0,44,0.00,,,0.00,weatherlink.com 1.10,2013-07-25 20:44:00,
2013-07-25 15:59:00,81.8,58.0,29.41,NNW,334,4.0,11.0,44,0.00,,,0.00,weatherlink.com 1.10,2013-07-25 20:59:00,
2013-07-25 16:14:00,81.4,56.0,29.41,East,89,3.0,7.0,42,0.00,,,0.00,weatherlink.com 1.10,2013-07-25 21:14:00,
2013-07-25 16:29:00,82.2,56.0,29.41,East,88,2.0,7.0,41,0.00,,,0.00,weatherlink.com 1.10,2013-07-25 21:29:00,
2013-07-25 16:44:00,82.3,57.0,29.41,ENE,77,3.0,7.0,42,0.00,,,0.00,weatherlink.com 1.10,2013-07-25 21:44:00,
2013-07-25 16:59:00,81.9,57.0,29.41,NE,41,2.0,7.0,42,0.00,,,0.00,weatherlink.com 1.10,2013-07-25 21:59:00,
2013-07-25 17:29:00,82.0,57.0,29.41,NE,46,3.0,5.0,43,0.00,,,0.00,weatherlink.com 1.10,2013-07-25 22:29:00,
2013-07-25 17:44:00,81.5,57.0,29.40,ENE,65,2.0,6.0,43,0.00,,,0.00,weatherlink.com 1.10,2013-07-25 22:44:00,
2013-07-25 17:59:00,81.9,57.0,29.40,NE,56,2.0,5.0,42,0.00,,,0.00,weatherlink.com 1.10,2013-07-25 22:59:00,
2013-07-25 18:14:00,82.0,56.0,29.40,NE,35,2.0,6.0,41,0.00,,,0.00,weatherlink.com 1.10,2013-07-25 23:14:00,
2013-07-25 18:29:00,81.8,56.0,29.40,NE,40,5.0,5.0,42,0.00,,,0.00,weatherlink.com 1.10,2013-07-25 23:29:00,
2013-07-25 18:44:00,81.2,57.0,29.40,East,82,3.0,4.0,43,0.00,,,0.00,weatherlink.com 1.10,2013-07-25 23:44:00,
2013-07-25 18:59:00,80.2,56.0,29.40,NNW,342,3.0,4.0,44,0.00,,,0.00,weatherlink.com 1.10,2013-07-25 23:59:00,
2013-07-25 19:14:00,79.9,58.0,29.40,North,358,2.0,4.0,47,0.00,,,0.00,weatherlink.com 1.10,2013-07-26 00:14:00,
2013-07-25 19:29:00,78.8,59.0,29.40,NNE,32,3.0,4.0,50,0.00,,,0.00,weatherlink.com 1.10,2013-07-26 00:29:00,
2013-07-25 19:44:00,78.1,58.0,29.40,NE,36,3.0,5.0,51,0.00,,,0.00,weatherlink.com 1.10,2013-07-26 00:44:00,
2013-07-25 19:59:00,77.5,59.0,29.39,ENE,75,3.0,3.0,53,0.00,,,0.00,weatherlink.com 1.10,2013-07-26 00:59:00,
2013-07-25 20:14:00,77.0,58.0,29.39,ENE,63,0.0,5.0,53,0.00,,,0.00,weatherlink.com 1.10,2013-07-26 01:14:00,
2013-07-25 20:29:00,75.9,59.0,29.38,ESE,112,1.0,1.0,57,0.00,,,0.00,weatherlink.com 1.10,2013-07-26 01:29:00,
2013-07-25 20:44:00,74.5,59.0,29.38,ESE,112,0.0,1.0,59,0.00,,,0.00,weatherlink.com 1.10,2013-07-26 01:44:00,
2013-07-25 20:59:00,73.9,59.0,29.39,SE,129,0.0,1.0,59,0.00,,,0.00,weatherlink.com 1.10,2013-07-26 01:59:00,
2013-07-25 21:14:00,73.0,58.0,29.39,SSE,152,0.0,1.0,59,0.00,,,0.00,weatherlink.com 1.10,2013-07-26 02:14:00,
2013-07-25 21:30:00,72.8,58.0,29.40,SSE,152,0.0,0.0,60,0.00,,,0.00,weatherlink.com 1.10,2013-07-26 02:30:00,
2013-07-25 21:44:00,72.8,58.0,29.41,SE,129,0.0,1.0,60,0.00,,,0.00,weatherlink.com 1.10,2013-07-26 02:44:00,
2013-07-25 21:59:00,72.6,58.0,29.41,SE,130,0.0,1.0,61,0.00,,,0.00,weatherlink.com 1.10,2013-07-26 02:59:00,
2013-07-25 22:14:00,72.2,58.0,29.42,SE,130,0.0,1.0,62,0.00,,,0.00,weatherlink.com 1.10,2013-07-26 03:14:00,
2013-07-25 22:29:00,71.9,59.0,29.41,SE,129,0.0,1.0,63,0.00,,,0.00,weatherlink.com 1.10,2013-07-26 03:29:00,
2013-07-25 22:44:00,72.5,59.0,29.41,ESE,111,0.0,1.0,62,0.00,,,0.00,weatherlink.com 1.10,2013-07-26 03:44:00,
2013-07-25 22:59:00,72.7,58.0,29.41,SE,129,0.0,1.0,61,0.00,,,0.00,weatherlink.com 1.10,2013-07-26 03:59:00,
2013-07-25 23:14:00,72.2,58.0,29.40,SW,215,3.0,3.0,62,0.00,,,0.00,weatherlink.com 1.10,2013-07-26 04:14:00,
2013-07-25 23:29:00,73.1,58.0,29.40,SE,129,0.0,4.0,60,0.00,,,0.00,weatherlink.com 1.10,2013-07-26 04:29:00,
2013-07-25 23:44:00,73.1,58.0,29.40,SE,137,2.0,4.0,60,0.00,,,0.00,weatherlink.com 1.10,2013-07-26 04:44:00,